"Datum/tijd (MEZT)";"verwachting windsnelheid";"waarneming windsnelheid [m/s]";"verwachting windrichting";"waarneming windrichting [graden]"
2024-04-22 01:00;9.4;10.3;47;39
2024-04-22 01:10;9.3;9.3;47;46
2024-04-22 01:20;9.1;8.4;47;52
2024-04-22 01:30;9;8.5;47;52
2024-04-22 01:40;8.9;7.8;47;56
2024-04-22 01:50;8.7;7.3;47;52
2024-04-22 02:00;8.6;7;47;54
2024-04-22 02:10;8.5;6.5;46;48
2024-04-22 02:20;8.3;6.6;45;43
2024-04-22 02:30;8.2;7;45;49
2024-04-22 02:40;8.1;6.7;44;48
2024-04-22 02:50;7.9;6.2;43;55
2024-04-22 03:00;7.8;6.6;42;56
2024-04-22 03:10;7.6;6.2;41;58
2024-04-22 03:20;7.3;6.2;40;58
2024-04-22 03:30;7.1;9.1;39;11
2024-04-22 03:40;6.8;8.4;38;11
2024-04-22 03:50;6.6;6.8;36;11
2024-04-22 04:00;6.3;6.8;35;22
2024-04-22 04:10;6.1;7.1;34;22
2024-04-22 04:20;6;8.1;32;39
2024-04-22 04:30;5.8;7.5;30;65
2024-04-22 04:40;5.6;7.8;28;55
2024-04-22 04:50;6.2;6.2;26;50
2024-04-22 05:00;6.1;5.4;24;31
2024-04-22 05:10;6.3;4.5;22;44
2024-04-22 05:20;6.4;4;20;48
2024-04-22 05:30;6.5;3.4;18;37
2024-04-22 05:40;6.6;4.1;16;32
2024-04-22 05:50;6.7;7.7;14;23
2024-04-22 06:00;6.8;9.2;12;13
2024-04-22 06:10;6.8;9.2;12;14
2024-04-22 06:20;6.8;8.3;12;17
2024-04-22 06:30;6.8;8.8;12;15
2024-04-22 06:40;6.8;8.2;11;19
2024-04-22 06:50;6.8;8.5;11;16
2024-04-22 07:00;6.7;8.1;11;15
2024-04-22 07:10;6.8;8.2;12;13
2024-04-22 07:20;6.8;8.3;12;14
2024-04-22 07:30;6.8;8.2;13;6
2024-04-22 07:40;6.8;8.3;13;8
2024-04-22 07:50;7.2;8.5;14;5
2024-04-22 08:00;6.7;8.1;17;6
2024-04-22 08:10;6.7;8.3;16;359
2024-04-22 08:20;6.7;9;15;4
2024-04-22 08:30;6.8;8.8;14;10
2024-04-22 08:40;6.8;8.7;13;8
2024-04-22 08:50;6.8;9.5;12;20
2024-04-22 09:00;6.8;9.9;11;14
2024-04-22 09:10;7;9.7;10;5
2024-04-22 09:20;7.1;9.4;10;8
2024-04-22 09:30;7.3;8.7;9;1
2024-04-22 09:40;7.4;8.5;9;1
2024-04-22 09:50;7.5;8.7;8;2
2024-04-22 10:00;7.7;8.8;8;3
2024-04-22 10:10;7.6;9.6;8;2
2024-04-22 10:20;7.6;10.3;8;1
2024-04-22 10:30;7.5;8.1;8;345
2024-04-22 10:40;7.4;4.7;8;350
2024-04-22 10:50;7.4;4.6;8;346
2024-04-22 11:00;7.3;4.8;8;356
2024-04-22 11:10;7.4;5.8;9;27
2024-04-22 11:20;7.4;8.5;9;57
2024-04-22 11:30;7.5;6.3;10;54
2024-04-22 11:40;7.5;7.2;10;35
2024-04-22 11:50;7.6;8.7;11;16
2024-04-22 12:00;7.6;5.3;12;19
2024-04-22 12:10;7.6;6;12;25
2024-04-22 12:20;7.7;5.7;12;17
2024-04-22 12:30;7.7;6.2;12;25
2024-04-22 12:40;7.7;8.6;12;6
2024-04-22 12:50;7.7;8.7;12;9
2024-04-22 13:00;7.7;8.5;12;13
2024-04-22 13:10;7.8;8.3;13;12
2024-04-22 13:20;7.8;8.2;15;15
2024-04-22 13:30;7.9;7.5;16;16
2024-04-22 13:40;8;7;17;15
2024-04-22 13:50;7.8;7.3;11;13
2024-04-22 14:00;7.7;6.7;9;11
2024-04-22 14:10;7.6;7;9;6
2024-04-22 14:20;7.5;6.7;9;13
2024-04-22 14:30;7.4;6;9;10
2024-04-22 14:40;7.3;6.5;9;5
2024-04-22 14:50;7.3;6.1;9;12
2024-04-22 15:00;7.2;6.5;9;9
2024-04-22 15:10;7.2;6.6;10;11
2024-04-22 15:20;7.3;6.5;11;8
2024-04-22 15:30;7.4;6.7;11;6
2024-04-22 15:40;7.4;6.3;12;6
2024-04-22 15:50;7.5;6.5;13;8
2024-04-22 16:00;7.6;6.8;13;359
2024-04-22 16:10;7.6;6.6;14;5
2024-04-22 16:20;7.6;7.1;15;4
2024-04-22 16:30;7.6;7.8;16;11
2024-04-22 16:40;7.6;7.4;16;5
2024-04-22 16:50;7.6;7.5;17;2
2024-04-22 17:00;7.5;8.4;18;356
2024-04-22 17:10;7.8;8.2;19;7
2024-04-22 17:20;8.1;7.9;20;16
2024-04-22 17:30;8.4;8.7;22;25
2024-04-22 17:40;8.7;9;23;23
2024-04-22 17:50;9;8.8;24;22
2024-04-22 18:00;9.4;8.8;26;26
2024-04-22 18:10;9.5;8.8;26;29
2024-04-22 18:20;9.6;8.5;27;31
2024-04-22 18:30;9.8;8.7;27;26
2024-04-22 18:40;9.9;8.5;27;25
2024-04-22 18:50;10.1;8.7;28;22
2024-04-22 19:00;10.2;8.9;28;22
2024-04-22 19:10;10.2;9;29;21
2024-04-22 19:20;10.1;9.4;30;20
2024-04-22 19:30;10;9;31;21
2024-04-22 19:40;9.9;9.4;32;17
2024-04-22 19:50;9.4;9.5;28;15
2024-04-22 20:00;8.9;9.3;28;16
2024-04-22 20:10;9;9.2;30;14
2024-04-22 20:20;9;8.8;32;18
2024-04-22 20:30;9.1;9.4;34;18
2024-04-22 20:40;9.1;9.1;36;21
2024-04-22 20:50;9.2;9.5;38;25
2024-04-22 21:00;9.2;9;40;32
2024-04-22 21:10;9.1;9.6;42;27
2024-04-22 21:20;8.9;9.4;44;28
2024-04-22 21:30;8.7;9.9;46;34
2024-04-22 21:40;8.6;10.2;48;32
2024-04-22 21:50;8.4;9.8;50;44
2024-04-22 22:00;8.3;9.3;52;52
2024-04-22 22:10;8.3;9.6;53;41
2024-04-22 22:20;8.3;9.1;54;45
2024-04-22 22:30;8.4;8.1;55;48
2024-04-22 22:40;8.4;9;57;58
2024-04-22 22:50;8.4;8.5;58;60
2024-04-22 23:00;8.5;8.8;59;60
2024-04-22 23:10;8.6;8.6;60;56
2024-04-22 23:20;8.7;8.5;60;57
2024-04-22 23:30;8.8;8.2;60;59
2024-04-22 23:40;8.9;8;60;59
2024-04-22 23:50;9;8.3;60;57
2024-04-23 00:00;9.1;7.8;61;58
2024-04-23 00:10;9;7.7;61;57
2024-04-23 00:20;9;7.6;61;57
2024-04-23 00:30;8.9;7.6;62;57
2024-04-23 00:40;8.9;7.4;62;57
2024-04-23 00:50;8.8;7.3;62;55
2024-04-23 01:00;8.8;7.1;63;55
2024-04-23 01:10;8.7;7.1;62;60
2024-04-23 01:20;8.5;7.3;62;58
2024-04-23 01:30;8.4;7.5;61;63
2024-04-23 01:40;8.3;7.5;61;63
2024-04-23 01:50;7.1;6.9;64;80
2024-04-23 02:00;6.9;6.9;69;77
2024-04-23 02:10;7;6.8;67;72
2024-04-23 02:20;7.1;6.9;65;73
2024-04-23 02:30;7.2;6.8;63;61
2024-04-23 02:40;7.3;7.2;61;64
2024-04-23 02:50;7.4;7;59;61
2024-04-23 03:00;7.5;7.2;57;60
2024-04-23 03:10;7.4;7.1;56;54
2024-04-23 03:20;7.3;7.3;56;56
2024-04-23 03:30;7.2;7;55;51
2024-04-23 03:40;7.1;6.8;55;52
2024-04-23 03:50;7;6.9;55;54
2024-04-23 04:00;6.9;5.3;54;53
2024-04-23 04:10;6.7;5.4;54;65
2024-04-23 04:20;6.6;5.6;53;48
2024-04-23 04:30;6.5;5.9;53;40
2024-04-23 04:40;6.4;5.9;53;44
2024-04-23 04:50;6.2;5.7;52;45
2024-04-23 05:00;6.1;5.8;52;52
2024-04-23 05:10;6;6.4;52;60
2024-04-23 05:20;5.9;6.3;52;61
2024-04-23 05:30;5.8;6.1;52;59
2024-04-23 05:40;5.7;5.6;52;64
2024-04-23 05:50;5.6;5.4;53;61
2024-04-23 06:00;5.5;4.9;53;58
2024-04-23 06:10;5.4;4.9;53;57
2024-04-23 06:20;5.2;5;54;54
2024-04-23 06:30;5.1;5;55;58
2024-04-23 06:40;5;5.1;56;62
2024-04-23 06:50;4.9;5;56;59
2024-04-23 07:00;4.8;4.7;57;55
2024-04-23 07:10;4.7;4.6;57;49
2024-04-23 07:20;4.6;3.9;58;52
2024-04-23 07:30;4.5;3.7;58;54
2024-04-23 07:40;4.3;3.7;59;48
2024-04-23 07:50;4.7;3.9;38;50
2024-04-23 08:00;4.6;4.1;34;53
2024-04-23 08:10;4.5;3.8;34;57
2024-04-23 08:20;4.4;3.7;34;79
2024-04-23 08:30;4.3;3.4;34;79
2024-04-23 08:40;4.1;3.3;34;83
2024-04-23 08:50;4;3.1;35;76
2024-04-23 09:00;3.9;2.9;35;78
2024-04-23 09:10;3.7;2.9;40;76
2024-04-23 09:20;3.6;2.8;44;62
2024-04-23 09:30;3.4;2.6;49;77
2024-04-23 09:40;3.2;2.2;54;84
2024-04-23 09:50;3;1.5;59;90
2024-04-23 10:00;2.9;1.5;64;81
2024-04-23 10:10;2.6;1.5;65;90
2024-04-23 10:20;2.4;1.7;66;60
2024-04-23 10:30;2.1;;68;
2024-04-23 10:40;1.9;1.9;69;67
2024-04-23 10:50;1.7;1.6;71;77
2024-04-23 11:00;1.4;1.6;72;72
2024-04-23 11:10;1.3;1.5;72;38
2024-04-23 11:20;1.1;0.9;71;28
2024-04-23 11:30;0.9;0.8;71;28
2024-04-23 11:40;0.8;0.2;70;20
2024-04-23 11:50;0.6;0.4;70;14
2024-04-23 12:00;0.4;0.4;70;347
2024-04-23 12:10;0.5;0.3;104;149
2024-04-23 12:20;0.6;0.4;139;103
2024-04-23 12:30;0.7;0.4;174;50
2024-04-23 12:40;0.8;0.5;209;329
2024-04-23 12:50;0.9;0.5;244;285
2024-04-23 13:00;1;1.2;279;241
2024-04-23 13:10;1.3;1.3;278;258
2024-04-23 13:20;1.5;1.5;277;241
2024-04-23 13:30;1.8;2.1;276;249
2024-04-23 13:40;2.1;2.5;275;246
2024-04-23 13:50;3.3;2.6;269;252
2024-04-23 14:00;3.5;2.7;264;249
2024-04-23 14:10;3.7;3.4;263;241
2024-04-23 14:20;3.9;3;262;249
2024-04-23 14:30;4.2;4;262;258
2024-04-23 14:40;4.4;4.3;261;254
2024-04-23 14:50;4.6;4.6;260;248
2024-04-23 15:00;4.9;4.3;259;252
2024-04-23 15:10;5.1;5.1;258;250
2024-04-23 15:20;5.3;5;258;248
2024-04-23 15:30;5.5;5.8;257;252
2024-04-23 15:40;5.8;5.5;256;255
2024-04-23 15:50;6;6.2;255;256
2024-04-23 16:00;6.2;6.3;254;254
2024-04-23 16:10;6.5;6.3;257;257
2024-04-23 16:20;6.8;6.5;259;258
2024-04-23 16:30;7.1;6;261;264
2024-04-23 16:40;7.4;6.1;264;271
2024-04-23 16:50;7.7;7.3;266;283
2024-04-23 17:00;8;7.6;269;284
2024-04-23 17:10;8.2;7.8;270;279
2024-04-23 17:20;8.4;8.4;271;280
2024-04-23 17:30;8.6;7.9;272;277
2024-04-23 17:40;8.8;8.3;273;278
2024-04-23 17:50;9;8.8;274;279
2024-04-23 18:00;9.2;9;275;280
2024-04-23 18:10;9.2;8.7;281;281
2024-04-23 18:20;9.1;8.8;287;282
2024-04-23 18:30;9.1;8;293;281
2024-04-23 18:40;9.1;7.6;299;280
2024-04-23 18:50;9;7.8;305;292
2024-04-23 19:00;9;6.6;311;314
2024-04-23 19:10;9.3;8.7;317;337
2024-04-23 19:20;9.6;7.9;323;349
2024-04-23 19:30;9.9;;329;
2024-04-23 19:40;10.2;;335;
2024-04-23 19:50;10.6;;341;
2024-04-23 20:00;10.9;;347;
2024-04-23 20:10;10.9;;346;
2024-04-23 20:20;10.9;;346;
2024-04-23 20:30;11;;345;
2024-04-23 20:40;11;;344;
2024-04-23 20:50;11;;344;
2024-04-23 21:00;11.1;;343;
2024-04-23 21:10;11;;343;
2024-04-23 21:20;11;;343;
2024-04-23 21:30;11;;343;
2024-04-23 21:40;11;;344;
2024-04-23 21:50;11;;344;
2024-04-23 22:00;11;;344;
2024-04-23 22:10;10.8;;343;
2024-04-23 22:20;10.6;;342;
2024-04-23 22:30;10.4;;341;
2024-04-23 22:40;10.2;;340;
2024-04-23 22:50;9.9;;339;
2024-04-23 23:00;9.7;;338;
2024-04-23 23:10;9.5;;341;
2024-04-23 23:20;9.3;;344;
2024-04-23 23:30;9.2;;346;
2024-04-23 23:40;9;;349;
2024-04-23 23:50;8.8;;351;
2024-04-24 00:00;8.6;;354;
2024-04-24 00:10;8.7;;351;
2024-04-24 00:20;8.8;;349;
2024-04-24 00:30;9;;347;
2024-04-24 00:40;9.1;;344;
2024-04-24 00:50;9.2;;342;
2024-04-24 01:00;9.3;;339;
2024-04-24 01:10;9.1;;339;
2024-04-24 01:20;8.9;;338;
2024-04-24 01:30;8.6;;338;
2024-04-24 01:40;8.4;;338;
2024-04-24 01:50;8.2;;337;
2024-04-24 02:00;8;;337;
2024-04-24 02:10;8.1;;336;
2024-04-24 02:20;8.3;;335;
2024-04-24 02:30;8.5;;334;
2024-04-24 02:40;8.7;;333;
2024-04-24 02:50;8.9;;331;
2024-04-24 03:00;9;;330;
2024-04-24 03:10;9.3;;333;
2024-04-24 03:20;9.6;;335;
2024-04-24 03:30;9.9;;338;
2024-04-24 03:40;10.2;;340;
2024-04-24 03:50;10.5;;342;
2024-04-24 04:00;10.8;;345;
2024-04-24 04:10;10.9;;344;
2024-04-24 04:20;10.9;;343;
2024-04-24 04:30;11;;342;
2024-04-24 04:40;11.1;;341;
2024-04-24 04:50;11.2;;340;
2024-04-24 05:00;11.3;;340;
2024-04-24 05:10;11.5;;339;
2024-04-24 05:20;11.6;;338;
2024-04-24 05:30;11.8;;337;
2024-04-24 05:40;12;;335;
2024-04-24 05:50;12.2;;334;
2024-04-24 06:00;12.4;;333;
2024-04-24 06:10;12.3;;332;
2024-04-24 06:20;12.3;;331;
2024-04-24 06:30;12.3;;330;
2024-04-24 06:40;12.3;;329;
2024-04-24 06:50;12.3;;328;
2024-04-24 07:00;12.3;;326;
2024-04-24 07:10;12.2;;326;
2024-04-24 07:20;12.1;;326;
2024-04-24 07:30;12;;327;
2024-04-24 07:40;12;;327;
2024-04-24 07:50;11.9;;327;
2024-04-24 08:00;11.8;;327;
2024-04-24 08:10;12;;328;
2024-04-24 08:20;12.1;;330;
2024-04-24 08:30;12.2;;331;
2024-04-24 08:40;12.4;;333;
2024-04-24 08:50;12.5;;335;
2024-04-24 09:00;12.7;;336;
2024-04-24 09:10;12.6;;335;
2024-04-24 09:20;12.6;;335;
2024-04-24 09:30;12.6;;334;
2024-04-24 09:40;12.5;;333;
2024-04-24 09:50;12.5;;332;
2024-04-24 10:00;12.5;;332;
2024-04-24 10:10;12.3;;332;
2024-04-24 10:20;12.2;;333;
2024-04-24 10:30;12.1;;334;
2024-04-24 10:40;11.9;;334;
2024-04-24 10:50;11.8;;335;
2024-04-24 11:00;11.7;;336;
2024-04-24 11:10;11.6;;336;
2024-04-24 11:20;11.6;;336;
2024-04-24 11:30;11.5;;336;
2024-04-24 11:40;11.5;;336;
2024-04-24 11:50;11.5;;336;
2024-04-24 12:00;11.4;;336;
2024-04-24 12:10;11.4;;336;
2024-04-24 12:20;11.4;;335;
2024-04-24 12:30;11.3;;335;
2024-04-24 12:40;11.3;;335;
2024-04-24 12:50;11.3;;335;
2024-04-24 13:00;11.3;;334;
2024-04-24 13:10;11.2;;334;
2024-04-24 13:20;11.2;;334;
2024-04-24 13:30;11.1;;334;
2024-04-24 13:40;11.1;;334;
2024-04-24 13:50;11;;334;
2024-04-24 14:00;11;;334;
2024-04-24 14:10;11;;334;
2024-04-24 14:20;11;;334;
2024-04-24 14:30;10.9;;334;
2024-04-24 14:40;10.9;;334;
2024-04-24 14:50;10.9;;334;
2024-04-24 15:00;10.9;;334;
2024-04-24 15:10;10.9;;333;
2024-04-24 15:20;10.9;;333;
2024-04-24 15:30;10.9;;333;
2024-04-24 15:40;10.9;;333;
2024-04-24 15:50;10.9;;333;
2024-04-24 16:00;10.9;;332;
2024-04-24 16:10;10.9;;332;
2024-04-24 16:20;10.9;;333;
2024-04-24 16:30;10.9;;333;
2024-04-24 16:40;11;;333;
2024-04-24 16:50;11;;333;
2024-04-24 17:00;11;;333;
2024-04-24 17:10;11;;333;
2024-04-24 17:20;11;;333;
2024-04-24 17:30;11;;332;
2024-04-24 17:40;11;;332;
2024-04-24 17:50;11;;332;
2024-04-24 18:00;11;;332;
2024-04-24 18:10;11;;332;
2024-04-24 18:20;11;;333;
2024-04-24 18:30;11;;333;
2024-04-24 18:40;11;;333;
2024-04-24 18:50;11;;334;
2024-04-24 19:00;11;;334;
2024-04-24 19:10;10.9;;334;
2024-04-24 19:20;10.9;;335;
2024-04-24 19:30;10.8;;335;
2024-04-24 19:40;10.7;;335;
2024-04-24 19:50;10.7;;335;
2024-04-24 20:00;10.6;;336;
2024-04-24 20:10;10.5;;336;
2024-04-24 20:20;10.5;;336;
2024-04-24 20:30;10.4;;337;
2024-04-24 20:40;10.3;;337;
2024-04-24 20:50;10.2;;337;
2024-04-24 21:00;10.1;;338;
2024-04-24 21:10;10;;338;
2024-04-24 21:20;9.9;;338;
2024-04-24 21:30;9.7;;338;
2024-04-24 21:40;9.6;;338;
2024-04-24 21:50;9.5;;338;
2024-04-24 22:00;9.3;;338;
2024-04-24 22:10;9.2;;338;
2024-04-24 22:20;9.1;;337;
2024-04-24 22:30;9;;336;
2024-04-24 22:40;8.9;;336;
2024-04-24 22:50;8.8;;335;
2024-04-24 23:00;8.7;;334;
2024-04-24 23:10;8.6;;334;
2024-04-24 23:20;8.4;;333;
2024-04-24 23:30;8.3;;332;
2024-04-24 23:40;8.2;;331;
2024-04-24 23:50;8.1;;330;
2024-04-25 00:00;8;;329;
2024-04-25 00:10;7.9;;329;
2024-04-25 00:20;7.9;;328;
2024-04-25 00:30;7.9;;327;
2024-04-25 00:40;7.9;;326;
2024-04-25 00:50;7.8;;326;
2024-04-25 01:00;7.8;;325;
2024-04-25 01:10;7.8;;324;
2024-04-25 01:20;7.8;;323;
2024-04-25 01:30;7.8;;322;
2024-04-25 01:40;7.8;;321;
2024-04-25 01:50;7.8;;320;
2024-04-25 02:00;7.8;;318;
2024-04-25 02:10;7.8;;318;
2024-04-25 02:20;7.8;;318;
2024-04-25 02:30;7.7;;317;
2024-04-25 02:40;7.7;;317;
2024-04-25 02:50;7.7;;317;
2024-04-25 03:00;7.7;;316;
2024-04-25 03:10;7.6;;316;
2024-04-25 03:20;7.6;;316;
2024-04-25 03:30;7.6;;316;
2024-04-25 03:40;7.5;;315;
2024-04-25 03:50;7.5;;315;
2024-04-25 04:00;7.4;;315;
2024-04-25 04:10;7.4;;314;
2024-04-25 04:20;7.3;;314;
2024-04-25 04:30;7.2;;314;
2024-04-25 04:40;7.1;;314;
2024-04-25 04:50;7.1;;313;
2024-04-25 05:00;7;;313;
2024-04-25 05:10;7;;313;
2024-04-25 05:20;7;;312;
2024-04-25 05:30;7;;312;
2024-04-25 05:40;7;;311;
2024-04-25 05:50;7;;311;
2024-04-25 06:00;6.9;;310;
2024-04-25 06:10;6.9;;308;
2024-04-25 06:20;6.9;;306;
2024-04-25 06:30;6.8;;304;
2024-04-25 06:40;6.8;;302;
2024-04-25 06:50;6.7;;300;
2024-04-25 07:00;6.7;;298;
2024-04-25 07:10;6.5;;299;
2024-04-25 07:20;6.4;;301;
2024-04-25 07:30;6.2;;302;
2024-04-25 07:40;6.1;;304;
2024-04-25 07:50;6;;305;
2024-04-25 08:00;5.8;;307;
2024-04-25 08:10;6.1;;303;
2024-04-25 08:20;6.3;;299;
2024-04-25 08:30;6.5;;295;
2024-04-25 08:40;6.7;;291;
2024-04-25 08:50;6.9;;287;
2024-04-25 09:00;7.1;;283;
2024-04-25 09:10;7;;282;
2024-04-25 09:20;7;;280;
2024-04-25 09:30;6.9;;278;
2024-04-25 09:40;6.8;;277;
2024-04-25 09:50;6.7;;275;
2024-04-25 10:00;6.7;;274;
2024-04-25 10:10;6.6;;272;
2024-04-25 10:20;6.5;;271;
2024-04-25 10:30;6.4;;269;
2024-04-25 10:40;6.3;;268;
2024-04-25 10:50;6.2;;266;
2024-04-25 11:00;6.1;;265;
2024-04-25 11:10;6.2;;262;
2024-04-25 11:20;6.2;;259;
2024-04-25 11:30;6.3;;256;
2024-04-25 11:40;6.3;;253;
2024-04-25 11:50;6.3;;250;
2024-04-25 12:00;6.4;;247;
2024-04-25 12:10;6.6;;245;
2024-04-25 12:20;6.7;;242;
2024-04-25 12:30;6.9;;240;
2024-04-25 12:40;7.1;;237;
2024-04-25 12:50;7.2;;235;
2024-04-25 13:00;7.4;;232;
2024-04-25 13:10;7.5;;229;
2024-04-25 13:20;7.6;;225;
2024-04-25 13:30;7.7;;221;
2024-04-25 13:40;7.9;;217;
2024-04-25 13:50;8;;213;
2024-04-25 14:00;8.1;;213;
2024-04-25 14:10;8.4;;214;
2024-04-25 14:20;8.6;;214;
2024-04-25 14:30;8.8;;215;
2024-04-25 14:40;9;;216;
2024-04-25 14:50;9.2;;216;
2024-04-25 15:00;9.5;;217;
2024-04-25 15:10;9.6;;219;
2024-04-25 15:20;9.8;;220;
2024-04-25 15:30;10;;221;
2024-04-25 15:40;10.1;;223;
2024-04-25 15:50;10.3;;224;
2024-04-25 16:00;10.4;;226;
2024-04-25 16:10;10.6;;228;
2024-04-25 16:20;10.7;;230;
2024-04-25 16:30;10.8;;231;
2024-04-25 16:40;11;;233;
2024-04-25 16:50;11;;235;
2024-04-25 17:00;11.2;;236;
2024-04-25 17:10;11;;237;
2024-04-25 17:20;10.8;;237;
2024-04-25 17:30;10.6;;238;
2024-04-25 17:40;10.3;;239;
2024-04-25 17:50;10.2;;239;
2024-04-25 18:00;10;;240;
2024-04-25 18:10;10.1;;241;
2024-04-25 18:20;10.3;;241;
2024-04-25 18:30;10.5;;242;
2024-04-25 18:40;10.6;;242;
2024-04-25 18:50;10.7;;243;
2024-04-25 19:00;10.8;;243;
2024-04-25 19:10;10.4;;249;
2024-04-25 19:20;9.9;;254;
2024-04-25 19:30;9.3;;259;
2024-04-25 19:40;8.8;;265;
2024-04-25 19:50;8.3;;270;
2024-04-25 20:00;7.8;;276;
2024-04-25 20:10;7.6;;283;
2024-04-25 20:20;7.4;;290;
2024-04-25 20:30;7.3;;297;
2024-04-25 20:40;7.1;;304;
2024-04-25 20:50;6.9;;312;
2024-04-25 21:00;6.8;;319;
2024-04-25 21:10;6.8;;320;
2024-04-25 21:20;6.8;;322;
2024-04-25 21:30;6.8;;323;
2024-04-25 21:40;6.9;;325;
2024-04-25 21:50;6.9;;327;
2024-04-25 22:00;6.9;;328;
2024-04-25 22:10;6.8;;329;
2024-04-25 22:20;6.7;;329;
2024-04-25 22:30;6.6;;329;
2024-04-25 22:40;6.5;;330;
2024-04-25 22:50;6.4;;330;
2024-04-25 23:00;6.3;;331;
2024-04-25 23:10;6.2;;329;
2024-04-25 23:20;6.2;;328;
2024-04-25 23:30;6.1;;326;
2024-04-25 23:40;6;;325;
2024-04-25 23:50;6;;323;
2024-04-26 00:00;5.9;;321;
2024-04-26 00:10;5.9;;320;
2024-04-26 00:20;5.9;;319;
2024-04-26 00:30;6;;317;
2024-04-26 00:40;6;;316;
2024-04-26 00:50;6;;314;
2024-04-26 01:00;6;;313;
2024-04-26 01:10;6.1;;312;
2024-04-26 01:20;6.2;;312;
2024-04-26 01:30;6.2;;312;
2024-04-26 01:40;6.3;;311;
2024-04-26 01:50;6.4;;311;
2024-04-26 02:00;6.4;;310;
2024-04-26 02:10;6.4;;310;
2024-04-26 02:20;6.4;;310;
2024-04-26 02:30;6.4;;310;
2024-04-26 02:40;6.4;;310;
2024-04-26 02:50;6.4;;309;
2024-04-26 03:00;6.4;;309;
2024-04-26 03:10;6.3;;309;
2024-04-26 03:20;6.2;;308;
2024-04-26 03:30;6.1;;308;
2024-04-26 03:40;6.1;;307;
2024-04-26 03:50;6;;307;
2024-04-26 04:00;5.9;;306;
2024-04-26 04:10;5.9;;307;
2024-04-26 04:20;5.8;;307;
2024-04-26 04:30;5.8;;308;
2024-04-26 04:40;5.7;;308;
2024-04-26 04:50;5.7;;309;
2024-04-26 05:00;5.6;;309;
2024-04-26 05:10;5.5;;309;
2024-04-26 05:20;5.4;;309;
2024-04-26 05:30;5.3;;309;
2024-04-26 05:40;5.2;;309;
2024-04-26 05:50;5.1;;309;
2024-04-26 06:00;5;;309;
2024-04-26 06:10;4.9;;309;
2024-04-26 06:20;4.8;;308;
2024-04-26 06:30;4.6;;308;
2024-04-26 06:40;4.5;;307;
2024-04-26 06:50;4.4;;307;
2024-04-26 07:00;4.2;;307;
2024-04-26 07:10;4.1;;306;
2024-04-26 07:20;4;;306;
2024-04-26 07:30;3.8;;306;
2024-04-26 07:40;3.7;;305;
2024-04-26 07:50;3.5;;305;
2024-04-26 08:00;3.4;;305;
2024-04-26 08:10;3.3;;304;
2024-04-26 08:20;3.2;;303;
2024-04-26 08:30;3.1;;302;
2024-04-26 08:40;3;;301;
2024-04-26 08:50;2.9;;300;
2024-04-26 09:00;2.9;;299;
2024-04-26 09:10;2.8;;297;
2024-04-26 09:20;2.7;;295;
2024-04-26 09:30;2.6;;293;
2024-04-26 09:40;2.5;;290;
2024-04-26 09:50;2.5;;288;
2024-04-26 10:00;2.4;;286;
2024-04-26 10:10;2.3;;282;
2024-04-26 10:20;2.2;;277;
2024-04-26 10:30;2.1;;273;
2024-04-26 10:40;2;;269;
2024-04-26 10:50;1.9;;265;
2024-04-26 11:00;1.8;;261;
2024-04-26 11:10;1.8;;258;
2024-04-26 11:20;1.7;;254;
2024-04-26 11:30;1.6;;251;
2024-04-26 11:40;1.5;;248;
2024-04-26 11:50;1.5;;244;
2024-04-26 12:00;1.4;;241;
2024-04-26 12:10;1.4;;234;
2024-04-26 12:20;1.4;;227;
2024-04-26 12:30;1.4;;221;
2024-04-26 12:40;1.4;;214;
2024-04-26 12:50;1.4;;207;
2024-04-26 13:00;1.4;;200;
2024-04-26 13:10;1.6;;197;
2024-04-26 13:20;1.8;;193;
2024-04-26 13:30;1.9;;190;
2024-04-26 13:40;2.1;;186;
2024-04-26 13:50;2.2;;183;
2024-04-26 14:00;2.4;;179;
2024-04-26 14:10;2.4;;178;
2024-04-26 14:20;2.4;;176;
2024-04-26 14:30;2.5;;175;
2024-04-26 14:40;2.5;;173;
2024-04-26 14:50;2.6;;172;
2024-04-26 15:00;2.6;;170;
2024-04-26 15:10;2.6;;167;
2024-04-26 15:20;2.6;;164;
2024-04-26 15:30;2.6;;161;
2024-04-26 15:40;2.6;;158;
2024-04-26 15:50;2.6;;155;
2024-04-26 16:00;2.6;;152;
2024-04-26 16:10;2.6;;147;
2024-04-26 16:20;2.6;;141;
2024-04-26 16:30;2.6;;135;
2024-04-26 16:40;2.6;;129;
2024-04-26 16:50;2.6;;123;
2024-04-26 17:00;2.6;;117;
2024-04-26 17:10;2.7;;112;
2024-04-26 17:20;2.8;;106;
2024-04-26 17:30;2.9;;100;
2024-04-26 17:40;3;;94;
2024-04-26 17:50;3.1;;89;
2024-04-26 18:00;3.2;;83;
2024-04-26 18:10;3.2;;81;
2024-04-26 18:20;3.2;;79;
2024-04-26 18:30;3.2;;77;
2024-04-26 18:40;3.2;;75;
2024-04-26 18:50;3.2;;72;
2024-04-26 19:00;3.2;;70;
2024-04-26 19:10;3.3;;70;
2024-04-26 19:20;3.3;;69;
2024-04-26 19:30;3.3;;68;
2024-04-26 19:40;3.4;;68;
2024-04-26 19:50;3.4;;67;
2024-04-26 20:00;3.4;;67;
2024-04-26 20:10;3.5;;67;
2024-04-26 20:20;3.7;;67;
2024-04-26 20:30;3.8;;68;
2024-04-26 20:40;3.9;;68;
2024-04-26 20:50;4;;68;
2024-04-26 21:00;4.1;;69;
2024-04-26 21:10;4.2;;69;
2024-04-26 21:20;4.4;;69;
2024-04-26 21:30;4.5;;70;
2024-04-26 21:40;4.6;;70;
2024-04-26 21:50;4.7;;70;
2024-04-26 22:00;4.8;;71;
2024-04-26 22:10;4.9;;71;
2024-04-26 22:20;5;;71;
2024-04-26 22:30;5.2;;72;
2024-04-26 22:40;5.3;;72;
2024-04-26 22:50;5.4;;72;
2024-04-26 23:00;5.5;;73;
2024-04-26 23:10;5.5;;74;
2024-04-26 23:20;5.4;;76;
2024-04-26 23:30;5.4;;78;
2024-04-26 23:40;5.3;;79;
2024-04-26 23:50;5.3;;81;
2024-04-27 00:00;5.2;;83;
2024-04-27 00:10;5.2;;84;
2024-04-27 00:20;5.1;;86;
2024-04-27 00:30;5.1;;88;
2024-04-27 00:40;5;;89;
2024-04-27 00:50;5;;91;
2024-04-27 01:00;4.9;;93;
2024-04-27 01:10;4.9;;94;
2024-04-27 01:20;4.8;;96;
2024-04-27 01:30;4.8;;98;
2024-04-27 01:40;4.7;;99;
2024-04-27 01:50;4.7;;101;
2024-04-27 02:00;4.6;;103;
2024-04-27 02:10;4.6;;102;
2024-04-27 02:20;4.6;;102;
2024-04-27 02:30;4.7;;101;
2024-04-27 02:40;4.7;;101;
2024-04-27 02:50;4.7;;101;
2024-04-27 03:00;4.7;;100;
2024-04-27 03:10;4.7;;100;
2024-04-27 03:20;4.7;;99;
2024-04-27 03:30;4.7;;99;
2024-04-27 03:40;4.7;;99;
2024-04-27 03:50;4.7;;98;
2024-04-27 04:00;4.8;;98;
2024-04-27 04:10;4.8;;97;
2024-04-27 04:20;4.8;;97;
2024-04-27 04:30;4.8;;97;
2024-04-27 04:40;4.8;;96;
2024-04-27 04:50;4.8;;96;
2024-04-27 05:00;4.8;;95;
2024-04-27 05:10;4.9;;96;
2024-04-27 05:20;5;;96;
2024-04-27 05:30;5.1;;97;
2024-04-27 05:40;5.2;;97;
2024-04-27 05:50;5.3;;98;
2024-04-27 06:00;5.4;;98;
2024-04-27 06:10;5.4;;99;
2024-04-27 06:20;5.5;;99;
2024-04-27 06:30;5.6;;100;
2024-04-27 06:40;5.7;;100;
2024-04-27 06:50;5.8;;100;
2024-04-27 07:00;5.9;;101;
2024-04-27 07:10;6;;101;
2024-04-27 07:20;6.1;;102;
2024-04-27 07:30;6.1;;102;
2024-04-27 07:40;6.2;;103;
2024-04-27 07:50;6.3;;103;
2024-04-27 08:00;6.4;;104;
2024-04-27 08:10;6.4;;104;
2024-04-27 08:20;6.3;;105;
2024-04-27 08:30;6.3;;106;
2024-04-27 08:40;6.3;;107;
2024-04-27 08:50;6.2;;108;
2024-04-27 09:00;6.2;;108;
2024-04-27 09:10;6.2;;109;
2024-04-27 09:20;6.1;;110;
2024-04-27 09:30;6.1;;111;
2024-04-27 09:40;6.1;;111;
2024-04-27 09:50;6;;112;
2024-04-27 10:00;6;;113;
2024-04-27 10:10;5.9;;114;
2024-04-27 10:20;5.9;;114;
2024-04-27 10:30;5.9;;115;
2024-04-27 10:40;5.8;;116;
2024-04-27 10:50;5.8;;117;
2024-04-27 11:00;5.8;;117;
2024-04-27 11:10;5.7;;117;
2024-04-27 11:20;5.7;;117;
2024-04-27 11:30;5.7;;117;
2024-04-27 11:40;5.6;;117;
2024-04-27 11:50;5.6;;117;
2024-04-27 12:00;5.5;;117;
2024-04-27 12:10;5.5;;117;
2024-04-27 12:20;5.5;;117;
2024-04-27 12:30;5.4;;117;
2024-04-27 12:40;5.4;;117;
2024-04-27 12:50;5.4;;117;
2024-04-27 13:00;5.3;;117;
2024-04-27 13:10;5.3;;117;
2024-04-27 13:20;5.2;;117;
2024-04-27 13:30;5.2;;117;
2024-04-27 13:40;5.2;;117;
2024-04-27 13:50;5.1;;117;
2024-04-27 14:00;5.1;;117;
2024-04-27 14:10;5;;117;
2024-04-27 14:20;4.9;;118;
2024-04-27 14:30;4.8;;118;
2024-04-27 14:40;4.7;;118;
2024-04-27 14:50;4.6;;119;
2024-04-27 15:00;4.5;;119;
2024-04-27 15:10;4.4;;119;
2024-04-27 15:20;4.3;;120;
2024-04-27 15:30;4.2;;120;
2024-04-27 15:40;4.1;;121;
2024-04-27 15:50;4;;121;
2024-04-27 16:00;3.9;;121;
2024-04-27 16:10;3.8;;122;
2024-04-27 16:20;3.7;;122;
2024-04-27 16:30;3.6;;122;
2024-04-27 16:40;3.5;;123;
2024-04-27 16:50;3.4;;123;
2024-04-27 17:00;3.3;;124;
2024-04-27 17:10;3.5;;123;
2024-04-27 17:20;3.8;;122;
2024-04-27 17:30;4;;121;